Location: Napoli
(40.8639°N, 14.2562°E)
Time: 15:06:43
(UTC+02:00)

ISS - Pass Details

Date: 28 May 2025
Orbit: 415 x 417 km, 51.6° (Epoch: 15 June)

Event Time Altitude Azimuth Distance (km) Brightness Sun altitude
Rises 21:31:04 0° 296° (WNW) 2,358 1.7 -10.9°
Reaches altitude 10° 21:33:25 10° 281° (WNW) 1,490 0.0 -11.2°
Maximum altitude 21:36:09 24° 226° (SW) 917 -2.0 -11.6°
Enters shadow 21:38:27 12° 176° (S) 1,344 -1.6 -11.9°
